Waarnemingen

Advertentie
Mijn weer
Florennes, België (6456): temperatuur & dauwpunt: 29.03.2020 00:00:00 - 04.04.2020 00:00:00 (CEST)Florennes, België (6456): windsnelheid & windstoten: 29.03.2020 00:00:00 - 04.04.2020 00:00:00 (CEST)Florennes, België (6456): windrichting: 29.03.2020 00:00:00 - 04.04.2020 00:00:00 (CEST)Florennes, België (6456): luchtdruk: 29.03.2020 00:00:00 - 04.04.2020 00:00:00 (CEST)Florennes, België (6456): zicht: 29.03.2020 00:00:00 - 04.04.2020 00:00:00 (CEST)
Datum & Tijd tt [°C] td [°C] ff [km/u] ff [kn] fx [km/u] fx [kn] dd ppp [hPa] vv [km]
04.04.2020 00:00:00 4,6 -1,7 4 2 7 4 N 1022,3 20
03.04.2020 23:00:00 4,9 -0,5 4 2 - - N 1022,0 20
03.04.2020 22:00:00 6,0 0,2 4 2 7 4 N 1021,3 19
03.04.2020 21:00:00 6,5 0,1 4 2 7 4 N 1020,7 20
03.04.2020 20:00:00 7,7 0,3 4 2 - - N 1020,1 19
03.04.2020 19:00:00 8,6 0,6 11 6 18 10 WNW 1019,7 20
03.04.2020 18:00:00 8,8 0,0 11 6 22 12 WNW 1019,3 18
03.04.2020 17:00:00 8,5 0,2 14 8 - - WNW 1019,2 20
03.04.2020 16:00:00 8,5 0,0 14 8 25 14 W 1019,2 19
03.04.2020 15:00:00 8,6 -0,5 14 8 29 16 NW 1019,0 20
03.04.2020 14:00:00 8,3 -0,8 18 10 - - WNW 1019,0 20
03.04.2020 13:00:00 8,7 -0,1 18 10 32 18 WNW 1018,5 19
03.04.2020 12:00:00 7,8 -0,1 18 10 29 16 WNW 1018,3 16
03.04.2020 11:00:00 7,3 2,0 18 10 - - W 1017,8 20
03.04.2020 10:00:00 6,5 2,4 14 8 22 12 WNW 1017,2 20
03.04.2020 09:00:00 5,4 3,7 7 4 11 6 W 1017,0 11
03.04.2020 08:00:00 4,8 3,5 7 4 - - W 1016,3 9
03.04.2020 07:00:00 4,8 3,6 7 4 11 6 WZW 1015,7 8
03.04.2020 06:00:00 4,9 3,9 7 4 14 8 W 1015,3 7
03.04.2020 05:00:00 4,8 3,8 11 6 - - W 1015,2 8
03.04.2020 04:00:00 5,0 3,6 15 8 18 10 W 1014,7 10
03.04.2020 03:00:00 5,0 3,3 14 8 22 12 W 1014,5 14
03.04.2020 02:00:00 5,5 2,7 11 6 - - W 1014,7 18
03.04.2020 01:00:00 5,5 2,5 11 6 22 12 W 1014,8 20
03.04.2020 00:00:00 5,5 1,5 11 6 18 10 W 1015,1 19
02.04.2020 23:00:00 5,6 -0,1 7 4 - - WZW 1014,7 16
02.04.2020 22:00:00 6,5 -0,6 7 4 11 6 WZW 1014,5 16
02.04.2020 21:00:00 7,0 -0,5 7 4 14 8 WZW 1014,3 17
02.04.2020 20:00:00 7,3 -0,5 11 6 - - W 1014,2 19
02.04.2020 19:00:00 7,3 -1,0 11 6 22 12 WNW 1014,3 15
02.04.2020 18:00:00 7,9 -0,7 11 6 25 14 NW 1014,2 18
02.04.2020 17:00:00 7,4 -1,7 11 6 - - NW 1014,3 17
02.04.2020 16:00:00 7,6 -1,1 14 8 22 12 WNW 1014,7 20
02.04.2020 15:00:00 6,9 -2,7 14 8 25 14 WNW 1015,2 20
02.04.2020 14:00:00 7,0 -2,7 4 2 - - N 1015,3 20
02.04.2020 13:00:00 5,6 -2,9 7 4 25 14 NNW 1016,2 20
02.04.2020 12:00:00 4,9 -2,5 11 6 22 12 NNW 1016,6 20
02.04.2020 11:00:00 4,7 -2,1 11 6 - - N 1016,7 20
02.04.2020 10:00:00 3,6 -0,9 2 1 11 6 - 1016,6 10
02.04.2020 09:00:00 1,5 0,0 4 2 7 4 N 1017,1 5
02.04.2020 08:00:00 -0,2 -0,9 4 2 - - N 1017,3 3,4
02.04.2020 07:00:00 -0,7 -1,3 4 2 4 2 N 1017,2 2,8
02.04.2020 06:00:00 -0,4 -1,4 4 2 4 2 N 1017,7 4,5
02.04.2020 05:00:00 -0,3 -1,5 4 2 - - N 1017,8 6
02.04.2020 04:00:00 0,4 -1,4 4 2 7 4 N 1018,1 11
02.04.2020 03:00:00 0,6 -1,3 4 2 11 6 N 1018,3 12
02.04.2020 02:00:00 1,4 -1,0 4 2 - - N 1018,7 14
02.04.2020 01:00:00 1,8 -1,4 4 2 18 10 N 1018,7 16
02.04.2020 00:00:00 2,0 -1,9 11 6 18 10 N 1019,2 17
01.04.2020 23:00:00 2,5 -3,4 11 6 - - N 1019,1 20
01.04.2020 22:00:00 4,5 -5,6 4 2 7 4 N 1018,8 20
01.04.2020 21:00:00 5,0 -5,6 4 2 7 4 N 1018,7 20
01.04.2020 20:00:00 5,4 -4,6 7 4 - - N 1018,6 20
01.04.2020 19:00:00 7,6 -5,4 7 4 22 12 NNO 1018,7 20
01.04.2020 18:00:00 8,3 -6,1 11 6 18 10 NNO 1018,8 8
01.04.2020 17:00:00 8,3 -5,4 11 6 - - N 1019,2 20
01.04.2020 16:00:00 8,3 -5,8 14 8 25 14 NNO 1019,8 18
01.04.2020 15:00:00 7,8 -5,7 4 2 18 10 N 1020,6 20
01.04.2020 14:00:00 7,5 -4,8 7 4 - - O 1021,2 20
01.04.2020 13:00:00 6,4 -4,3 7 4 22 12 ONO 1022,2 13
01.04.2020 12:00:00 6,0 -3,6 11 6 18 10 O 1023,2 20
01.04.2020 11:00:00 4,6 -4,0 4 2 - - N 1024,0 19
01.04.2020 10:00:00 3,1 -2,4 4 2 4 2 N 1024,2 19
01.04.2020 09:00:00 1,4 -4,6 4 2 0 0 N 1024,5 20
01.04.2020 08:00:00 -0,1 -5,6 4 2 - - N 1024,7 20
01.04.2020 07:00:00 -0,7 -5,6 4 2 4 2 N 1025,0 20
01.04.2020 06:00:00 -0,3 -5,8 4 2 4 2 N 1025,2 20
01.04.2020 05:00:00 -0,1 -5,7 4 2 - - N 1025,7 20
01.04.2020 04:00:00 0,4 -5,8 4 2 7 4 N 1026,0 20
01.04.2020 03:00:00 0,6 -5,7 4 2 7 4 N 1026,5 20
01.04.2020 02:00:00 1,2 -5,7 4 2 - - N 1026,7 20
01.04.2020 01:00:00 1,5 -5,6 7 4 11 6 NO 1027,0 20
01.04.2020 00:00:00 2,2 -5,6 4 2 11 6 N 1027,4 20
31.03.2020 23:00:00 2,3 -5,6 11 6 - - ONO 1027,7 20
31.03.2020 22:00:00 2,9 -5,4 11 6 18 10 NO 1027,9 20
31.03.2020 21:00:00 3,6 -4,9 14 8 29 16 NO 1028,0 20
31.03.2020 20:00:00 5,4 -5,9 22 12 - - NO 1027,5 20
31.03.2020 19:00:00 6,6 -6,1 22 12 32 18 NNO 1027,5 20
31.03.2020 18:00:00 7,4 -4,1 22 12 36 19 NO 1027,5 20
31.03.2020 17:00:00 7,2 -2,9 22 12 - - NO 1027,7 20
31.03.2020 16:00:00 7,5 -2,4 18 10 29 16 ONO 1028,0 19
31.03.2020 15:00:00 7,1 -0,2 18 10 25 14 ONO 1028,5 20
31.03.2020 14:00:00 6,2 -0,5 18 10 - - NO 1029,0 19
31.03.2020 13:00:00 4,8 0,2 18 10 29 16 NNO 1029,7 11
31.03.2020 12:00:00 3,7 0,1 18 10 29 16 NO 1030,0 18
31.03.2020 11:00:00 3,4 0,0 18 10 - - NO 1030,0 13
31.03.2020 10:00:00 4,1 0,8 18 10 25 14 NO 1029,7 11
31.03.2020 09:00:00 2,5 0,9 14 8 22 12 NO 1029,7 10
31.03.2020 08:00:00 2,2 1,1 11 6 - - NO 1029,0 7
31.03.2020 07:00:00 2,5 1,4 11 6 18 10 NO 1028,7 8
31.03.2020 06:00:00 2,7 1,1 11 6 22 12 NNO 1028,2 10
31.03.2020 05:00:00 2,9 1,8 11 6 - - NNO 1028,2 9
31.03.2020 04:00:00 3,0 1,8 7 4 14 8 NNO 1028,0 11
31.03.2020 03:00:00 3,2 1,6 11 6 22 12 NNO 1028,2 14
31.03.2020 02:00:00 3,2 1,3 14 8 - - NNO 1028,2 15
31.03.2020 01:00:00 2,7 0,8 7 4 11 6 N 1028,4 16
31.03.2020 00:00:00 3,0 0,0 7 4 11 6 N 1028,5 18
30.03.2020 23:00:00 2,5 -0,6 7 4 - - NNO 1028,5 20
30.03.2020 22:00:00 4,0 -0,2 4 2 7 4 N 1028,2 20
30.03.2020 21:00:00 4,1 -0,5 4 2 14 8 N 1028,2 20
30.03.2020 20:00:00 3,9 -1,4 11 6 - - NNO 1028,0 20
30.03.2020 19:00:00 5,2 -2,1 18 10 32 18 N 1027,9 20
30.03.2020 18:00:00 6,3 -2,4 18 10 32 18 NNO 1028,0 20
30.03.2020 17:00:00 6,5 -2,7 22 12 - - NNO 1028,2 18
30.03.2020 16:00:00 5,6 -4,4 22 12 32 18 NNO 1029,0 20
30.03.2020 15:00:00 5,4 -5,3 18 10 32 18 NNO 1029,9 20
30.03.2020 14:00:00 4,6 -5,8 18 10 - - NO 1030,5 20
30.03.2020 13:00:00 2,9 -7,4 18 10 36 19 NNO 1031,2 20
30.03.2020 12:00:00 2,7 -7,5 22 12 40 21 NO 1031,9 20
30.03.2020 11:00:00 1,3 -8,9 18 10 - - ONO 1032,5 20
30.03.2020 10:00:00 0,0 -9,2 18 10 22 12 ONO 1032,9 19
30.03.2020 09:00:00 -1,7 -8,2 11 6 22 12 NO 1033,2 19
30.03.2020 08:00:00 -3,9 -8,6 11 6 - - NO 1033,4 20
30.03.2020 07:00:00 -3,7 -9,1 14 8 25 14 NO 1033,0 20
30.03.2020 06:00:00 -3,1 -9,3 18 10 22 12 NO 1033,2 20
30.03.2020 05:00:00 -2,9 -9,2 14 8 - - NO 1033,4 20
30.03.2020 04:00:00 -2,4 -10,2 18 10 25 14 NO 1033,5 20
30.03.2020 03:00:00 -1,8 -10,1 22 12 32 18 NNO 1033,5 20
30.03.2020 02:00:00 -0,8 -10,3 25 14 - - NO 1033,5 20
30.03.2020 01:00:00 -0,4 -9,8 29 16 47 25 NO 1033,5 20
30.03.2020 00:00:00 1,2 -9,1 29 16 47 25 NO 1033,4 20
29.03.2020 23:00:00 1,6 -7,4 29 16 - - NNO 1032,9 20
29.03.2020 22:00:00 2,3 -6,0 32 18 58 31 NO 1032,4 20
29.03.2020 21:00:00 2,5 -5,3 32 18 54 29 NO 1032,0 20
29.03.2020 20:00:00 2,3 -3,9 36 19 - - NNO 1031,2 20
29.03.2020 19:00:00 2,8 -3,9 36 19 50 27 NO 1030,2 20
29.03.2020 18:00:00 3,2 -4,0 29 16 54 29 NO 1029,7 20
29.03.2020 17:00:00 3,0 -3,4 36 19 - - NO 1029,4 20
29.03.2020 16:00:00 3,3 -3,3 34 18 58 31 NO 1029,2 10
29.03.2020 15:00:00 2,4 -1,3 32 18 61 33 NNO 1029,4 11
29.03.2020 14:00:00 2,7 -2,2 42 23 - - NNO 1029,2 10
29.03.2020 13:00:00 2,3 -2,7 40 21 65 35 NNO 1029,0 8
29.03.2020 12:00:00 4,3 -6,2 43 23 58 31 NNO 1028,0 20
29.03.2020 11:00:00 4,6 -3,3 36 19 - - NNO 1027,9 15
29.03.2020 10:00:00 3,1 -0,9 32 18 50 27 NNO 1027,9 17
29.03.2020 09:00:00 2,5 -0,4 29 16 47 25 NNO 1027,7 15
29.03.2020 08:00:00 2,0 -0,7 22 12 - - N 1027,0 10
29.03.2020 07:00:00 1,6 -1,3 18 10 36 19 N 1027,0 17
29.03.2020 06:00:00 1,2 -2,2 18 10 32 18 N 1027,2 20
29.03.2020 05:00:00 0,6 -2,9 14 8 - - N 1027,5 19
29.03.2020 04:00:00 1,6 -2,2 22 12 36 19 NNO 1027,5 19
29.03.2020 03:00:00 2,2 -0,9 28 15 43 23 NNO 1027,5 10
29.03.2020 02:00:00 3,0 0,4 25 14 - - NNO 1027,4 19
29.03.2020 01:00:00 3,7 1,0 32 18 47 25 NNO 1026,7 18
29.03.2020 00:00:00 - - - - - - - - -

tt = temperatuur
td = dauwpunt
ff = windsnelheid
fx = windstoten
dd = windrichting
ppp = luchtdruk
vv = zicht

Weerstations in de omgeving